Regional Weather Roundup
Issued by NWS

Home | Current Version | Previous Version | Text Only | Print | Product List | Glossary Off
Versions: 1 2 3 4 5 6 7 8 9 10 11 12 13 14 15 16 17 18 19 20 21 22 23 24 25 26 27 28 29 30 31 32 33 34 35 36 37 38 39 40 41 42 43 44 45 46 47 48 49 50

000
ASUS45 KPSR 052310
RWRAZ

ARIZONA HOURLY REGIONAL WEATHER ROUNDUP
NATIONAL WEATHER SERVICE PHOENIX AZ
400 PM MST FRI FEB 05 2016

NOTE: FAIR INDICATES FEW OR NO CLOUDS BELOW 12,000 FEET WITH NO
SIGNIFICANT WEATHER AND/OR OBSTRUCTIONS TO VISIBILITY.

AZZ001>003-036-060000-
NORTHWEST ARIZONA

CITY           SKY/WX    TMP DP  RH WIND       PRES   REMARKS
BULLHEAD CITY  SUNNY     63  23  22 N25G32    30.38S
KINGMAN        SUNNY     56  20  24 N12       30.38S
$$

AZZ004>008-015-016-018-060000-
NORTH CENTRAL ARIZONA

CITY           SKY/WX    TMP DP  RH WIND       PRES   REMARKS
GRAND CANYON   SUNNY     35  14  42 E9        30.44S WCI  28
WILLIAMS       SUNNY     36  10  35 N8        30.45S WCI  29
PRESCOTT       SUNNY     50  13  22 N6        30.37S
FLAGSTAFF      SUNNY     32  13  45 NE18G26   30.39S WCI  20
PAYSON         SUNNY     46   9  21 NE7G18    30.37R
PAGE           SUNNY     42  22  44 NE7       30.48F
$$

AZZ009>014-017-060000-
NORTHEAST ARIZONA

CITY           SKY/WX    TMP DP  RH WIND       PRES   REMARKS
WINSLOW        SUNNY     44  16  32 VRB3      30.44F
SAINT JOHNS    SUNNY     43   8  23 VRB5      30.39F
WINDOW ROCK    SUNNY     39   0  19 N5        30.39S
SHOW LOW       SUNNY     36  10  35 N14       30.39F WCI  27
$$

AZZ023-060000-
GREATER PHOENIX AREA

CITY           SKY/WX    TMP DP  RH WIND       PRES   REMARKS
PHOENIX        MOSUNNY   69  14  12 VRB6      30.27F
BUCKEYE        SUNNY     68  18  14 NE9       30.30F
GLENDALE       MOSUNNY   68  18  14 NE5       30.30F
LUKE AFB       SUNNY     69  18  14 N14       30.26F
DEER VALLEY    SUNNY     66  15  14 MISG      30.28F
SCOTTSDALE     SUNNY     67  12  12 NE7       30.30S
MESA-FALCON    MOSUNNY  N/A N/A N/A N12       30.28F
MESA-GATEWAY   MOSUNNY   66  14  13 N15       30.29F
$$

AZZ027-028-060000-
SOUTHWEST MARICOPA COUNTY AND PINAL COUNTY

CITY           SKY/WX    TMP DP  RH WIND       PRES   REMARKS
CASA GRANDE    SUNNY     64  18  16 NE10G17   30.28F
GILA BEND      SUNNY     67  18  15 N15       30.27F
$$

AZZ503-504-507>509-060000-
SOUTHEAST ARIZONA

CITY           SKY/WX    TMP DP  RH WIND       PRES   REMARKS
TUCSON         SUNNY     64  12  13 VRB5      30.27F
DAVIS-MONTHAN  SUNNY     62  14  15 N5        30.25S
RYAN FIELD     SUNNY     64  18  16 N5        30.26F
NOGALES        SUNNY     65   6  10 N15G23    30.22F
SIERRA VISTA   SUNNY     58   8  13 E7        30.29S
DOUGLAS        SUNNY     61  11  14 VRB7      30.28S
SAFFORD        SUNNY     59  13  16 W5        30.29S
$$

AZZ020-021-025-026-031-060000-
SOUTHWEST ARIZONA

CITY           SKY/WX    TMP DP  RH WIND       PRES   REMARKS
YUMA           SUNNY     72  22  15 VRB6      30.28F
$$

CAZ031-033-041-043-047-048-061-060000-
SOUTHERN CALIFORNIA

CITY           SKY/WX    TMP DP  RH WIND       PRES   REMARKS
DOWNTOWN L.A.  SUNNY     76  24  14 VRB5      30.23F
L.A. AIRPORT   SUNNY     71  32  23 W9        30.24F
SAN DIEGO      SUNNY     71  34  25 NW10      30.22F
BURBANK        SUNNY     75  20  12 VRB5      30.24F
ONTARIO        SUNNY     74  17  11 NE12G22   30.25F
RIVERSIDE      SUNNY     73  19  13 NE10G21   30.27F
PALM SPRINGS   SUNNY     74  19  12 N10       30.33F
EL CENTRO NAS  SUNNY     73  20  13 N5        30.32F
IMPERIAL       SUNNY     72  23  16 N7        30.30F
BLYTHE         SUNNY     70  20  15 N14       30.32F
NEEDLES        SUNNY     67  22  18 N23G29    30.36F
$$

NVZ020-UTZ003-060000-
SOUTHERN NEVADA-UTAH

CITY           SKY/WX    TMP DP  RH WIND       PRES   REMARKS
LAS VEGAS      MOSUNNY   59  20  22 NE13      30.40F
SALT LAKE CITY MOSUNNY   39  23  52 CALM      30.53S
$$

NMZ009-TXZ055-060000-
NEW MEXICO-WEST TEXAS

CITY           SKY/WX    TMP DP  RH WIND       PRES   REMARKS
ALBUQUERQUE    SUNNY     43   5  20 N14       30.36S
EL PASO        SUNNY     53   0  11 N18       30.31S
$$


........................KEY........................
SKY/WX - SKY CONDITION/WEATHER
TMP    - TEMPERATURE IN FAHRENHEIT
DP     - DEW POINT IN FAHRENHEIT
RH     - RELATIVE HUMIDITY IN PERCENT
WIND   - DIRECTION AND SPEED IN MILES PER HOUR (MPH)
VRB    - VARIABLE WIND DIRECTION
PRES   - MEAN SEA LEVEL PRESSURE IN INCHES OF MERCURY
         F - FALLING PRESSURE   R - RISING PRESSURE
         S - STEADY PRESSURE
VSB    - VISIBILITY IN MILES
HX     - HEAT INDEX IN FAHRENHEIT
WCI    - WIND CHILL INDEX IN FAHRENHEIT
TC     - TEMPERATURE IN CELSIUS WHICH IS ALSO KNOWN AS
         TEMPERATURE IN CENTIGRADE
AFB    - AIR FORCE BASE
         LUKE AFB IS LUKE AIR FORCE BASE
         DAVIS-MONTHAN IS DAVIS-MONTHAN AIR FORCE BASE
NAS    - NAVAL AIR STATION
         EL CENTRO NAS IS EL CENTRO NAVAL AIR STATION
N/A    - NOT AVAILABLE




USA.gov is the U.S. government's official web portal to all federal, state and local government web resources and services.